COSMOS 2251 DEB, 34007

Orbit data source: Space-Track

COSMOS 2251 DEB, 34007 is space debris in LEO originally from a launch on Wed, 16 Jun 1993 UTC launched from the Plesetsk Missile And Space Complex (PKMTR). The debris from Iridium 33, an American commercial communications satellite, has been tracked extensively since its accidental collision with the defunct Russian satellite Cosmos 2251 in 2009. This event, occurring at high speed in low Earth orbit (LEO), generated thousands of pieces of space debris, significantly increasing the risk of further collisions. The Iridium 33 debris cloud has impacted space traffic management and orbital debris mitigation strategies, making it a subject of ongoing study in space situational awareness.

Loading next visibility...
Identifier
34007, 1993-036GS
Orbit
LEO
Country
Flag of CISCIS
Related business
Manufacturer
Unknown
Mission
Spacecraft
Bus & Motor
Unknown
Mass
Unknown
Launch date (UTC)
1993-06-16 (33 years ago)
Launch vehicle
Unknown
Launch site
Plesetsk Missile And Space Complex (PKMTR)
Object type
Payload
Rocket body
Debris
Shape & HBR
Unknown shape, 0.2 m
Radar Cross Section
Small (<0.1 m²)

Expand to show TLE details & history
Last TLE update: 9 hours ago

TLE from 9 hours ago
0 COSMOS 2251 DEB
1 34007U 93036GS  26122.13891507  .00003276  00000-0  59486-3 0  9995
2 34007  74.0179  76.3626 0046757 177.4371 182.7047 14.65915100911364
Epoch: 2026-05-02T03:20Z
TLE epoch observation values (Epoch: 2026-05-02T03:20:02.262Z)
Latitude
0.00001°
Longitude
166.29207°
Altitude
709.729 km
Speed
7.484 km/s
True Right ascension
05h 05m 27s
True Declination
0° 00' 00"
Sunlit
Object was in daylight at epoch
Visualization orbit readout
Latitude
Unknown
Longitude
Unknown
Altitude
Unknown
Speed
Unknown
Apparent Right ascension
Unknown
Apparent Declination
Unknown
Sunlit
N/A
Visualization observer readout
Local Sidereal Time
19:49:05
Azimuth
Unknown
Elevation
Unknown
Doppler factor
Unknown
Orbital elements
Apogee altitude
704.695 km
Perigee altitude
638.768 km
Semi-major axis
7,049.868 km
Eccentricity
0.00468
Inclination
74.0179°
RAAN
76.3626°
Arg. of periapsis
177.4371°
True anomaly
182.67956°
Mean anomaly
182.7047°
Eccentric anomaly
182.69212°
Mean motion
3.66667 °/min
Orbital period
98.18 mins
BSTAR
0.00059486
Loading maneuver chart data...
Computing Atmospheric mass density...
Loading historical data...
Loading historical data...
Loading historical data...
Loading historical data...
Loading historical data...
Loading historical data...
Loading historical data...

Documentation

Showing up to 5 results
|